This demonstration page uses our WeatherBlox Daily Observations layout. Learn more.

Left ArrowRight Arrow

Hourly Observations for February 24, 2019

Temp ( °F °C ) Dew Point ( °F °C ) Humidity (%) Winds ( mph kmh ) Pressure ( in mb ) Visibility ( mi km ) Precip ( " mm )
12:52 am 00:52 Mostly Cloudy with Blowing Snow 21 -6.1 15 -9.4 78 78 NW 26 43 29.88 1012 4 6 0.00 0.00
1:52 am 01:52 Partly Cloudy with Blowing Snow 20 -6.7 13 -10.6 74 74 NW 25 41 29.95 1014 6 10 0.00 0.00
2:52 am 02:52 Partly Cloudy with Blowing Snow 20 -6.7 12 -11.1 71 71 NW 24 39 29.98 1015 5 8 0.00 0.00
3:52 am 03:52 Mostly Cloudy with Blowing Snow 19 -7.2 13 -10.6 77 77 NW 28 44 30.04 1017 5 8 0.00 0.00
4:52 am 04:52 Mostly Cloudy with Blowing Snow 17 -8.3 11 -11.7 77 77 NW 33 54 30.09 1019 5 8 0.00 0.00
5:21 am 05:21 Partly Cloudy with Blowing Snow 16 -8.9 9 -12.8 74 74 NW 25 41 30.18 1022 6 10 0.00 0.00
5:52 am 05:52 Mostly Cloudy with Light Snow 16 -8.9 9 -12.8 74 74 NW 28 44 30.14 1021 6 10 0.00 0.00
6:13 am 06:13 Windy with Snow Likely 13 -10.6 6 -14.4 74 74 NW 29 46 30.23 1024 3 4 0.00 0.00
6:42 am 06:42 Partly Cloudy with Scattered Snow Showers 12 -11.1 5 -15 73 73 NW 21 33 30.25 1024 3 5 0.00 0.00
6:52 am 06:52 Partly Cloudy with Blowing Snow 11 -11.7 5 -15 77 77 NW 24 39 30.20 1023 4 6 0.00 0.03
7:52 am 07:52 Partly Cloudy with Blowing Snow 11 -11.7 3 -16.1 70 70 NW 25 41 30.24 1024 6 10 0.00 0.00
8:52 am 08:52 Partly Cloudy with Blowing Snow 11 -11.7 3 -16.1 70 70 NW 26 43 30.29 1026 6 10 0.00 0.00
9:52 am 09:52 Mostly Sunny 12 -11.1 3 -16.1 67 67 NW 30 48 30.33 1027 7 11 0.00 0.00
10:52 am 10:52 Mostly Sunny 13 -10.6 4 -15.6 67 67 NW 28 44 30.34 1028 7 11 0.00 0.00
11:52 am 11:52 Mostly Sunny 14 -10 4 -15.6 64 64 NW 21 33 30.39 1029 8 13 0.00 0.00
12:52 pm 12:52 Mostly Sunny 16 -8.9 5 -15 62 62 NW 23 37 30.40 1029 10 16 0.00 0.00
1:52 pm 13:52 Mostly Sunny 17 -8.3 5 -15 59 59 WNW 22 35 30.40 1030 10 16 0.00 0.00
2:52 pm 14:52 Mostly Sunny 17 -8.3 5 -15 59 59 NW 20 31 30.41 1030 10 16 0.00 0.00
3:52 pm 15:52 Partly Cloudy 17 -8.3 5 -15 59 59 NW 18 30 30.44 1031 10 16 0.00 0.00
4:52 pm 16:52 Mostly Cloudy 16 -8.9 5 -15 62 62 NW 18 30 30.44 1031 10 16 0.00 0.00
5:52 pm 17:52 Partly Cloudy 13 -10.6 2 -16.7 61 61 NW 15 24 30.46 1031 10 16 0.00 0.00
6:52 pm 18:52 Partly Cloudy 10 -12.2 0 -17.8 63 63 NNW 15 24 30.47 1032 10 16 0.00 0.00
7:52 pm 19:52 Partly Cloudy 8 -13.3 -1 -18.3 66 66 NNW 9 15 30.50 1033 10 16 0.00 0.00
8:52 pm 20:52 Clear 7 -13.9 -3 -19.4 63 63 NNW 16 26 30.50 1033 10 16 0.00 0.00
9:52 pm 21:52 Clear 5 -15 -4 -20 66 66 NNW 9 15 30.54 1034 10 16 0.00 0.00
10:52 pm 22:52 Clear 4 -15.6 -4 -20 69 69 NNW 6 9 30.52 1033 10 16 0.00 0.00
11:52 pm 23:52 Clear 1 -17.2 -4 -20 79 79 NNW 5 7 30.53 1034 10 16 0.00 0.00

Powered by AerisWeather